• Join FlightAware (Why Join?)
  • Login
  • US Flag 
10:37PM EDT


 

Airport Tracker/Info


-or-


 

Live Flight TrackerFlight Track Log ✈ EGF3681 ✈ 26-Aug-2013 ✈ KORD - KDAY

Flight Track Log - Related Links

Times and Time Zones

All times are in EDT time to prevent confusion due to time zone crossing. See the EGF3681 flight status page for this flight to view local times or setup timezone preferences in your user account.

Time Position Orientation Groundspeed Altitude Reporting Facility
EDT Latitude Longitude Course Direction KTS MPH feet Rate Location/Type
11:39PM 42.0333 -87.9500 95° East 216 249 3,000  Level Chicago TRACON
11:40PM 42.1000 -87.8833 37° Northeast 267 307 5,400 2,100 Climbing Chicago TRACON
11:41PM 41.9652 -87.5183 98° East  Level FlightAware Approximate
11:41PM 42.1333 -87.8167 56° Northeast 291 335 7,100  Level Chicago TRACON
11:42PM 41.9526 -87.3922 98° East  Level FlightAware Approximate
11:42PM 42.1281 -87.7125 94° East 295 339 9,100  Level Chicago Center
11:43PM 41.9428 -87.2656 95° East  Level FlightAware Approximate
11:43PM 42.1100 -87.6050 103° East 305 351 11,400  Level Chicago Center
11:44PM 41.9337 -87.1390 95° East  Level FlightAware Approximate
11:44PM 42.0753 -87.4964 113° Southeast 315 362 13,200  Level Chicago Center
11:45PM 42.0414 -87.3825 112° Southeast 326 375 15,000 1,800 Climbing Chicago Center
11:46PM 41.9975 -87.2411 113° Southeast 339 390 16,900 1,620 Climbing Chicago Center
11:47PM 41.9611 -87.1183 112° Southeast 351 404 18,300 1,020 Climbing Chicago Center
11:48PM 41.9444 -86.9878 100° East 364 419 19,000 360 Climbing Chicago Center
11:49PM 41.9469 -86.8383 89° East 396 456 19,100 540 Climbing Chicago Center
11:50PM 41.9503 -86.6911 88° East 397 457 20,100 960 Climbing Chicago Center
11:51PM 41.9514 -86.5575 89° East 405 466 21,100 960 Climbing Chicago Center
11:52PM 41.9122 -86.4186 111° Southeast 416 479 22,100 900 Climbing Chicago Center
11:53PM 41.8039 -86.2967 140° Southeast 425 489 23,000 420 Climbing Chicago Center
11:54PM 41.7092 -86.1903 140° Southeast 443 510 23,000  Level Chicago Center
11:55PM 41.6094 -86.0789 140° Southeast 465 535 23,000  Level Chicago Center
11:56PM 41.5092 -85.9664 140° Southeast 474 545 23,000  Level Chicago Center
11:57PM 41.4078 -85.8539 140° Southeast 478 550 23,000  Level Chicago Center
11:58PM 41.3083 -85.7428 140° Southeast 473 544 23,000  Level Chicago Center
11:59PM 41.2114 -85.6336 140° Southeast 464 534 23,000  Level Chicago Center
12:00AM 41.1133 -85.5261 140° Southeast 460 529 23,000  Level Chicago Center
12:01AM 41.0164 -85.4194 140° Southeast 458 527 23,000 -900 Level Chicago Center
12:02AM 40.9197 -85.3117 140° Southeast 457 526 21,300 -2,100 Descending Chicago Center
12:03AM 40.8019 -85.1822 140° Southeast 461 531 18,800 -2,220 Descending Chicago Center
12:04AM 40.7078 -85.0789 140° Southeast 449 517 16,900 -1,920 Descending Chicago Center
12:05AM 40.6242 -84.9919 142° Southeast 430 495 15,100 -2,100 Descending Indianapolis Center
12:06AM 40.5400 -84.8997 140° Southeast 403 464 12,900 -1,800 Descending Indianapolis Center
12:07AM 40.4644 -84.8214 142° Southeast 396 456 11,500 -960 Descending Indianapolis Center
12:08AM 40.3864 -84.7331 139° Southeast 380 437 11,000 -840 Descending Indianapolis Center
12:09AM 40.3242 -84.6500 134° Southeast 333 383 9,900 -1,440 Descending Indianapolis Center
12:10AM 40.2581 -84.5611 134° Southeast 290 334 8,200 -1,560 Descending Indianapolis Center
12:11AM 40.2017 -84.4864 135° Southeast 287 330 6,800 -1,380 Descending Indianapolis Center
12:12AM 40.1478 -84.4147 135° Southeast 281 323 5,500 -1,140 Descending Indianapolis Center
12:13AM 40.0933 -84.3419 134° Southeast 279 321 4,600 -1,020 Descending Indianapolis Center
12:14AM 40.0397 -84.2744 136° Southeast 276 318 3,500 -1,020 Descending Indianapolis Center
12:15AM 39.9944 -84.2178 136° Southeast 250 288 2,600 -840 Descending Indianapolis Center
12:16AM 39.9531 -84.2122 174° South 184 212 1,800 -600 Descending Indianapolis Center
12:17AM 39.9167 -84.2131 181° South 169 194 1,500 -300 Descending Indianapolis Center